Погода в Курчуме

Казахстан     48°34′03″N   83°39′00″E
темп.,
°C
ветер,
м/с
пор.,
м/с
влажн.,
%
обл.,
%
осадки,
мм/ч
давл.,
гПа
погр.,
м
25 февраля, чт
чт2500:00−2в3394100 0.6 101745
03:00−2вюв2398100 0.9 101638
06:00−2зсз4798100 1.5 1018283
09:00−5зсз61185100 0.5 10231005
12:00−9зсз91372100 0.5 10291279
15:00−11ссз71163100 0.0 1032866
18:00−13всв2372100 0.0 103523
21:00−14всв127999 0.0 103621
26 февраля, пт
пт2600:00−13юв349599 0.4 1036194
03:00−14ююз3696100 0.5 1038240
06:00−16зсз2784100 0.6 1040436
09:00−17всв0181100 0.0 1042151
12:00−16зсз3668100 0.0 1043837
15:00−16св2270100 0.0 1042420
18:00−17всв2382100 0.0 104242
21:00−18с3383100 0.0 104441
27 февраля, сб
сб2700:00−18с2285100 0.0 104325
03:00−17всв1296100 0.1 104225
06:00−17вюв1197100 0.2 104220
09:00−17ю1195100 0.1 1041101
12:00−15ю1186100 0.1 1040348
15:00−14ю1282100 0.0 1039421
18:00−16сз2294100 0.1 104020
21:00−17св1184100 0.0 104120
28 февраля, вс
вс2800:00−17юв0182100 0.0 104120
03:00−17юз1183100 0.0 104120
06:00−18з1185100 0.0 104120
09:00−17всв018463 0.0 104220
12:00−12вюв376957 0.0 1039422
15:00−8юв6126495 0.0 1036726
18:00−10юв496897 0.0 1035290
21:00−12вюв3870100 0.0 1034280
1 марта, пн
пн100:00−10юв51068100 0.0 1033352
03:00−10юв4967100 0.0 1031298
06:00−9юв3967100 0.0 1030335
09:00−9всв0676100 0.0 1029153
12:00−5юв1668100 0.0 1027547
15:00−3ююв3970100 0.0 1026543
18:00−5ююв51173100 0.0 1026275
21:00−7ююв4977100 0.0 1026210